x

Central Aleutians 230nm Sw Dutch Harbor (46072) Wave Buoy

10:50 - Wed 30th Jul 2014 All times are UTC.

  • Sig Wave height 3.6ft
  • Peak Period 8s
  • Average Period 5s
  • Wind
    13mph, 16mph gusts
  • Sea Temp 55°f
  • Ar Temp 54°f
  • Sea Pressure 1022.3mb

More Historic Weather Station data

Upgrade to MSW Pro to gain access to the past 30 days of data for over 8000 Wavebouys and Weather Stations around the globe.

Join Pro

Comparision Forecast

View Surf forecast
   
Qua 07/30 10:50 3.5ft 8s 5s 13 16 mph 1022.3mb 55f 54f
9:50 3.5ft 7s 5s 13 16 mph 1022.8mb 55f 54f
8:50 4ft 8s 5s 13 16 mph 1022.6mb 55f 54f
7:50 4ft 8s 5s 13 16 mph 1022.7mb 55f 55f
6:50 4ft 8s 5s 11 13 mph 1022.4mb 55f 55f
5:50 4ft 8s 5s 13
mph
1022mb 55f 55f
4:50 4ft 7s 5s 11 13 mph 1022.1mb 55f 55f
3:50 3.5ft 7s 5s 11 13 mph 1022.2mb 55f 55f
2:50 4ft 7s 5s 11 13 mph 1022.4mb 55f 55f
1:50 4ft 8s 5s 13 16 mph 1022.8mb 55f 55f
12:50 4.5ft 7s 5s 13 16 mph 1022.9mb 54f 55f
Ter 07/29 11:50 4.5ft 7s 5s 13 16 mph 1022.8mb 54f 54f
10:50 4ft 6s 4s 13 16 mph 1023.1mb 54f 54f
9:50 4.5ft 6s 5s 16 18 mph 1023.1mb 54f 54f
8:50 4.5ft 7s 5s 13 16 mph 1023.1mb 53f 54f
7:50 4.5ft 9s 5s 13 16 mph 1023.1mb 53f 53f
6:50 4.5ft 7s 5s 16 18 mph 1023.3mb 53f 53f
5:50 4.5ft 8s 5s 16 18 mph 1023.3mb 54f 53f
4:50 4.5ft 7s 5s 16 18 mph 1023.1mb 54f 53f
3:50 4ft 6s 5s 16 20 mph 1023.2mb 54f 53f
2:50 4ft 7s 5s 16 18 mph 1023.3mb 53f 53f
1:50 4ft 8s 5s 16 18 mph 1023.5mb 53f 53f
12:50 4ft 6s 5s 13 16 mph 1023.7mb 52f 52f
11:50 4.5ft 7s 5s 13 16 mph 1023.9mb 49f 52f
10:50 4.5ft 7s 5s 16 18 mph 1024.2mb 47f 51f
9:50 5ft 7s 5s 11 13 mph 1024.5mb 47f 50f
8:50 5ft 7s 5s 13 16 mph 1024.7mb 46f 50f
7:50 5ft 7s 5s 13 16 mph 1024.4mb 48f 50f
6:50 5ft 7s 5s 16
mph
1024.2mb 49f 51f
5:50 5ft 8s 5s 16 18 mph 1024.2mb 48f 51f
4:50 4.5ft 8s 5s 16 18 mph 1024.4mb 49f 51f
3:50 4.5ft 7s 5s 13 16 mph 1024.4mb 50f 52f
2:50 4.5ft 8s 5s 13
mph
1024.6mb 51f 52f
1:50 4.5ft 8s 5s 11 16 mph 1024.9mb 53f 52f
12:50 4.5ft 8s 5s 13 18 mph 1025mb 53f 52f
Seg 07/28 11:50 4.5ft 8s 5s 16 18 mph 1025.3mb 53f 52f
10:50 4.5ft 8s 5s 16 18 mph 1025.4mb 54f 51f
9:50 4.5ft 7s 5s 13 16 mph 1025.5mb 54f 51f
8:50 4ft 8s 5s 13 16 mph 1025.2mb 54f 50f
7:50 3.5ft 6s 5s 13 18 mph 1025.4mb 54f 50f
6:50 3.5ft 8s 5s 11 16 mph 1025.6mb 54f 50f
5:50 4ft 7s 6s 11 13 mph 1025.2mb 54f 49f
4:50 3.5ft 8s 6s 11 13 mph 1025.2mb 54f 50f
3:50 3.5ft 8s 6s 11 13 mph 1025.1mb 54f 50f
2:50 3.5ft 8s 6s 11 16 mph 1025.1mb 54f 49f
1:50 3.5ft 9s 7s 9 11 mph 1025.4mb 54f 49f
12:50 3.5ft 8s 6s 11 13 mph 1025.4mb 54f 49f
11:50 3ft 8s 6s 7 11 mph 1025.2mb 54f 49f
10:50 3.5ft 9s 7s 9 11 mph 1025.5mb 54f 49f
9:50 3.5ft 7s 7s 4 9 mph 1025.6mb 54f 48f
8:50 3ft 7s 7s 7 11 mph 1025.7mb 54f 48f
7:50 3.5ft 8s 8s 7 9 mph 1025.4mb 54f 49f
6:50 3.5ft 8s 8s 7 9 mph 1025.3mb 54f 49f
5:50 3.5ft 9s 8s 4 7 mph 1025.3mb 54f 50f
4:50 3.5ft 8s 8s 4 7 mph 1025.1mb 54f 50f
3:50 3.5ft 9s 8s 9 11 mph 1024.9mb 54f 50f
2:50 3ft 9s 8s 7
mph
1025.1mb 54f 50f
1:50 3.5ft 9s 8s 9 11 mph 1025.3mb 54f 50f
12:50 3.5ft 9s 7s 9
mph
1025.4mb 54f 50f
Dom 07/27 11:50 3.5ft 9s 8s 7 9 mph 1025.2mb 54f 50f
10:50 3.5ft 9s 8s 4 9 mph 1025.2mb 54f 49f
9:50 3ft 9s 7s 7 9 mph 1025.3mb 54f 48f
8:50 2.5ft 10s 8s 7 9 mph 1025.3mb 54f 48f
7:50 2.5ft 10s 8s 7 9 mph 1025.1mb 54f 48f
6:50 2.5ft 14s 8s 7 9 mph 1024.7mb 54f 48f
5:50 2.5ft 14s 8s 9
mph
1024.5mb 54f 49f
4:50 2.5ft 11s 8s 4
mph
1024.4mb 52f 49f
3:50 2.5ft 14s 8s 2
mph
1024.3mb 53f 49f
2:50 2.5ft 14s 7s 4 7 mph 1024.1mb 54f 50f
1:50 2.5ft 7s 7s 2 4 mph 1024.5mb 54f 50f
12:50 2.5ft 8s 7s 2 4 mph 1024.5mb 54f 50f
11:50 2.5ft 8s 7s 2 4 mph 1024.4mb 54f 50f
10:50 2.5ft 7s 7s 2 4 mph 1024.2mb 54f 50f
9:50 2.5ft 13s 7s 2 4 mph 1024.2mb 54f 50f
8:50 2.5ft 8s 8s 2 7 mph 1024.1mb 54f 50f
7:50 2.5ft 14s 8s 2 4 mph 1023.8mb 54f 50f
6:50 2.5ft 15s 8s 4 9 mph 1023.4mb 54f 50f
5:50 2.5ft 13s 8s  -  2 mph 1023.5mb 54f 50f
4:50 2.5ft 14s 8s 2
mph
1023.2mb 54f 50f
3:50 2.5ft 9s 8s 4
mph
1023.4mb 54f 50f
2:50 2ft 14s 7s 4
mph
1023.8mb 54f 50f
1:50 2.5ft 14s 7s 4 7 mph 1024mb 54f 50f
12:50 2.5ft 8s 6s 4 7 mph 1024.1mb 54f 49f
Sáb 07/26 11:50 2.5ft 8s 6s 4 7 mph 1024.3mb 54f 49f
10:50 2.5ft 8s 6s 7
mph
1024.4mb 54f 49f
9:50 2.5ft 14s 6s 7 9 mph 1024.3mb 54f 49f
8:50 2.5ft 7s 6s 2 4 mph 1024.3mb 54f 49f
7:50 2.5ft 8s 6s 2 4 mph 1024.2mb 54f 49f
6:50 2.5ft 8s 6s 4 7 mph 1024.3mb 54f 49f
5:50 2.5ft 9s 7s 4 7 mph 1024.3mb 54f 49f
4:50 2.5ft 9s 7s 7 9 mph 1024.4mb 54f 48f
3:50 2.5ft 9s 7s 7 9 mph 1024.2mb 54f 48f
2:50 2.5ft 15s 6s 4 9 mph 1024.1mb 54f 49f
1:50 2.5ft 9s 5s 4 9 mph 1024.3mb 54f 49f
12:50 2.5ft 8s 5s 9 11 mph 1024.4mb 54f 48f